<?xml version="1.0" encoding="UTF-8" standalone="no" ?>
<gpx xmlns="http://www.topografix.com/GPX/1/1" xmlns:xsi="http://www.w3.org/2001/XMLSchema-instance" xsi:schemaLocation="http://www.topografix.com/GPX/1/1 http://www.topografix.com/GPX/1/1/gpx.xsd" version="1.1" creator="VisuGPX - https://www.visugpx.com">
  <metadata>
    <name>lacapelle multitrace</name>
  </metadata>
  <trk>
    <name><![CDATA[12330532-anjau]]></name>
    <extensions>
      <line xmlns="http://www.topografix.com/GPX/gpx_style/0/2">
        <color>0000FF</color>
        <width>4</width>
      </line>
    </extensions>
    <trkseg>
      <trkpt lat="44.60055" lon="0.89468">
        <ele>173</ele>
        <time>2020-12-13T20:08:10Z</time>
      </trkpt>
      <trkpt lat="44.59992" lon="0.89454">
        <ele>175</ele>
        <time>2020-12-13T20:08:25Z</time>
      </trkpt>
      <trkpt lat="44.59968" lon="0.89454">
        <ele>174</ele>
        <time>2020-12-13T20:08:31Z</time>
      </trkpt>
      <trkpt lat="44.59934" lon="0.89416">
        <ele>175</ele>
        <time>2020-12-13T20:08:41Z</time>
      </trkpt>
      <trkpt lat="44.59896" lon="0.89365">
        <ele>174</ele>
        <time>2020-12-13T20:08:53Z</time>
      </trkpt>
      <trkpt lat="44.59867" lon="0.89347">
        <ele>172</ele>
        <time>2020-12-13T20:09:00Z</time>
      </trkpt>
      <trkpt lat="44.59777" lon="0.8923">
        <ele>169</ele>
        <time>2020-12-13T20:09:29Z</time>
      </trkpt>
      <trkpt lat="44.59754" lon="0.89205">
        <ele>168</ele>
        <time>2020-12-13T20:09:36Z</time>
      </trkpt>
      <trkpt lat="44.59716" lon="0.89156">
        <ele>170</ele>
        <time>2020-12-13T20:09:48Z</time>
      </trkpt>
      <trkpt lat="44.59686" lon="0.89127">
        <ele>172</ele>
        <time>2020-12-13T20:09:56Z</time>
      </trkpt>
      <trkpt lat="44.5966" lon="0.89117">
        <ele>173</ele>
        <time>2020-12-13T20:10:03Z</time>
      </trkpt>
      <trkpt lat="44.59638" lon="0.89096">
        <ele>174</ele>
        <time>2020-12-13T20:10:09Z</time>
      </trkpt>
      <trkpt lat="44.59602" lon="0.8901">
        <ele>178</ele>
        <time>2020-12-13T20:10:25Z</time>
      </trkpt>
      <trkpt lat="44.59581" lon="0.8895">
        <ele>177</ele>
        <time>2020-12-13T20:10:37Z</time>
      </trkpt>
      <trkpt lat="44.5955" lon="0.88897">
        <ele>172</ele>
        <time>2020-12-13T20:10:48Z</time>
      </trkpt>
      <trkpt lat="44.59509" lon="0.88838">
        <ele>169</ele>
        <time>2020-12-13T20:11:02Z</time>
      </trkpt>
      <trkpt lat="44.59476" lon="0.88797">
        <ele>171</ele>
        <time>2020-12-13T20:11:12Z</time>
      </trkpt>
      <trkpt lat="44.59453" lon="0.88759">
        <ele>174</ele>
        <time>2020-12-13T20:11:20Z</time>
      </trkpt>
      <trkpt lat="44.59417" lon="0.88732">
        <ele>178</ele>
        <time>2020-12-13T20:11:30Z</time>
      </trkpt>
      <trkpt lat="44.5939" lon="0.88691">
        <ele>175</ele>
        <time>2020-12-13T20:11:39Z</time>
      </trkpt>
      <trkpt lat="44.59373" lon="0.88641">
        <ele>173</ele>
        <time>2020-12-13T20:11:48Z</time>
      </trkpt>
      <trkpt lat="44.59357" lon="0.88607">
        <ele>170</ele>
        <time>2020-12-13T20:11:55Z</time>
      </trkpt>
      <trkpt lat="44.59348" lon="0.88548">
        <ele>167</ele>
        <time>2020-12-13T20:12:05Z</time>
      </trkpt>
      <trkpt lat="44.59334" lon="0.88527">
        <ele>164</ele>
        <time>2020-12-13T20:12:10Z</time>
      </trkpt>
      <trkpt lat="44.59327" lon="0.88507">
        <ele>162</ele>
        <time>2020-12-13T20:12:14Z</time>
      </trkpt>
      <trkpt lat="44.59324" lon="0.88463">
        <ele>160</ele>
        <time>2020-12-13T20:12:21Z</time>
      </trkpt>
      <trkpt lat="44.59313" lon="0.88421">
        <ele>157</ele>
        <time>2020-12-13T20:12:28Z</time>
      </trkpt>
      <trkpt lat="44.59304" lon="0.88377">
        <ele>159</ele>
        <time>2020-12-13T20:12:36Z</time>
      </trkpt>
      <trkpt lat="44.59285" lon="0.88363">
        <ele>158</ele>
        <time>2020-12-13T20:12:41Z</time>
      </trkpt>
      <trkpt lat="44.59264" lon="0.88339">
        <ele>158</ele>
        <time>2020-12-13T20:12:47Z</time>
      </trkpt>
      <trkpt lat="44.59232" lon="0.88303">
        <ele>160</ele>
        <time>2020-12-13T20:12:57Z</time>
      </trkpt>
      <trkpt lat="44.59186" lon="0.88298">
        <ele>159</ele>
        <time>2020-12-13T20:13:08Z</time>
      </trkpt>
      <trkpt lat="44.59132" lon="0.88293">
        <ele>159</ele>
        <time>2020-12-13T20:13:20Z</time>
      </trkpt>
      <trkpt lat="44.59079" lon="0.88273">
        <ele>160</ele>
        <time>2020-12-13T20:13:33Z</time>
      </trkpt>
      <trkpt lat="44.59067" lon="0.88264">
        <ele>161</ele>
        <time>2020-12-13T20:13:36Z</time>
      </trkpt>
      <trkpt lat="44.59026" lon="0.88252">
        <ele>160</ele>
        <time>2020-12-13T20:13:46Z</time>
      </trkpt>
      <trkpt lat="44.59024" lon="0.88232">
        <ele>161</ele>
        <time>2020-12-13T20:13:49Z</time>
      </trkpt>
      <trkpt lat="44.59018" lon="0.88204">
        <ele>163</ele>
        <time>2020-12-13T20:13:54Z</time>
      </trkpt>
      <trkpt lat="44.58984" lon="0.88171">
        <ele>162</ele>
        <time>2020-12-13T20:14:04Z</time>
      </trkpt>
      <trkpt lat="44.58948" lon="0.88126">
        <ele>158</ele>
        <time>2020-12-13T20:14:15Z</time>
      </trkpt>
      <trkpt lat="44.58909" lon="0.88076">
        <ele>155</ele>
        <time>2020-12-13T20:14:28Z</time>
      </trkpt>
      <trkpt lat="44.58885" lon="0.88071">
        <ele>153</ele>
        <time>2020-12-13T20:14:33Z</time>
      </trkpt>
      <trkpt lat="44.58857" lon="0.88107">
        <ele>151</ele>
        <time>2020-12-13T20:14:42Z</time>
      </trkpt>
      <trkpt lat="44.58827" lon="0.88104">
        <ele>150</ele>
        <time>2020-12-13T20:14:49Z</time>
      </trkpt>
      <trkpt lat="44.58789" lon="0.8809">
        <ele>151</ele>
        <time>2020-12-13T20:14:58Z</time>
      </trkpt>
      <trkpt lat="44.58754" lon="0.8809">
        <ele>152</ele>
        <time>2020-12-13T20:15:06Z</time>
      </trkpt>
      <trkpt lat="44.58698" lon="0.88112">
        <ele>159</ele>
        <time>2020-12-13T20:15:20Z</time>
      </trkpt>
      <trkpt lat="44.58602" lon="0.88094">
        <ele>161</ele>
        <time>2020-12-13T20:15:43Z</time>
      </trkpt>
      <trkpt lat="44.58578" lon="0.88081">
        <ele>160</ele>
        <time>2020-12-13T20:15:49Z</time>
      </trkpt>
      <trkpt lat="44.58561" lon="0.88072">
        <ele>159</ele>
        <time>2020-12-13T20:15:53Z</time>
      </trkpt>
      <trkpt lat="44.58528" lon="0.88102">
        <ele>159</ele>
        <time>2020-12-13T20:16:02Z</time>
      </trkpt>
      <trkpt lat="44.58478" lon="0.88117">
        <ele>159</ele>
        <time>2020-12-13T20:16:14Z</time>
      </trkpt>
      <trkpt lat="44.58439" lon="0.8813">
        <ele>162</ele>
        <time>2020-12-13T20:16:23Z</time>
      </trkpt>
      <trkpt lat="44.58383" lon="0.88166">
        <ele>173</ele>
        <time>2020-12-13T20:16:38Z</time>
      </trkpt>
      <trkpt lat="44.58339" lon="0.88182">
        <ele>180</ele>
        <time>2020-12-13T20:16:48Z</time>
      </trkpt>
      <trkpt lat="44.58312" lon="0.88189">
        <ele>183</ele>
        <time>2020-12-13T20:16:55Z</time>
      </trkpt>
      <trkpt lat="44.58286" lon="0.88206">
        <ele>186</ele>
        <time>2020-12-13T20:17:01Z</time>
      </trkpt>
      <trkpt lat="44.58231" lon="0.8821">
        <ele>191</ele>
        <time>2020-12-13T20:17:14Z</time>
      </trkpt>
      <trkpt lat="44.582" lon="0.88227">
        <ele>192</ele>
        <time>2020-12-13T20:17:22Z</time>
      </trkpt>
      <trkpt lat="44.58176" lon="0.88237">
        <ele>194</ele>
        <time>2020-12-13T20:17:28Z</time>
      </trkpt>
      <trkpt lat="44.58149" lon="0.88274">
        <ele>196</ele>
        <time>2020-12-13T20:17:37Z</time>
      </trkpt>
      <trkpt lat="44.58103" lon="0.88303">
        <ele>197</ele>
        <time>2020-12-13T20:17:49Z</time>
      </trkpt>
      <trkpt lat="44.5808" lon="0.88333">
        <ele>201</ele>
        <time>2020-12-13T20:17:56Z</time>
      </trkpt>
      <trkpt lat="44.58059" lon="0.88349">
        <ele>201</ele>
        <time>2020-12-13T20:18:01Z</time>
      </trkpt>
      <trkpt lat="44.58007" lon="0.88381">
        <ele>200</ele>
        <time>2020-12-13T20:18:15Z</time>
      </trkpt>
      <trkpt lat="44.57943" lon="0.88416">
        <ele>203</ele>
        <time>2020-12-13T20:18:31Z</time>
      </trkpt>
      <trkpt lat="44.57904" lon="0.88451">
        <ele>204</ele>
        <time>2020-12-13T20:18:42Z</time>
      </trkpt>
      <trkpt lat="44.57857" lon="0.88479">
        <ele>207</ele>
        <time>2020-12-13T20:18:53Z</time>
      </trkpt>
      <trkpt lat="44.57832" lon="0.88497">
        <ele>210</ele>
        <time>2020-12-13T20:19:00Z</time>
      </trkpt>
      <trkpt lat="44.57793" lon="0.88501">
        <ele>209</ele>
        <time>2020-12-13T20:19:09Z</time>
      </trkpt>
      <trkpt lat="44.57742" lon="0.88527">
        <ele>208</ele>
        <time>2020-12-13T20:19:22Z</time>
      </trkpt>
      <trkpt lat="44.5771" lon="0.88552">
        <ele>206</ele>
        <time>2020-12-13T20:19:30Z</time>
      </trkpt>
      <trkpt lat="44.57646" lon="0.88557">
        <ele>204</ele>
        <time>2020-12-13T20:19:45Z</time>
      </trkpt>
      <trkpt lat="44.57547" lon="0.88556">
        <ele>205</ele>
        <time>2020-12-13T20:20:08Z</time>
      </trkpt>
      <trkpt lat="44.57499" lon="0.88557">
        <ele>205</ele>
        <time>2020-12-13T20:20:20Z</time>
      </trkpt>
      <trkpt lat="44.57424" lon="0.88608">
        <ele>201</ele>
        <time>2020-12-13T20:20:39Z</time>
      </trkpt>
      <trkpt lat="44.57398" lon="0.8863">
        <ele>197</ele>
        <time>2020-12-13T20:20:46Z</time>
      </trkpt>
      <trkpt lat="44.57316" lon="0.88659">
        <ele>191</ele>
        <time>2020-12-13T20:21:06Z</time>
      </trkpt>
      <trkpt lat="44.57238" lon="0.88694">
        <ele>186</ele>
        <time>2020-12-13T20:21:25Z</time>
      </trkpt>
      <trkpt lat="44.5722" lon="0.88722">
        <ele>184</ele>
        <time>2020-12-13T20:21:31Z</time>
      </trkpt>
      <trkpt lat="44.57197" lon="0.88763">
        <ele>184</ele>
        <time>2020-12-13T20:21:40Z</time>
      </trkpt>
      <trkpt lat="44.5716" lon="0.88815">
        <ele>184</ele>
        <time>2020-12-13T20:21:52Z</time>
      </trkpt>
      <trkpt lat="44.57143" lon="0.8883">
        <ele>184</ele>
        <time>2020-12-13T20:21:57Z</time>
      </trkpt>
      <trkpt lat="44.57116" lon="0.88869">
        <ele>182</ele>
        <time>2020-12-13T20:22:06Z</time>
      </trkpt>
      <trkpt lat="44.57092" lon="0.88911">
        <ele>181</ele>
        <time>2020-12-13T20:22:15Z</time>
      </trkpt>
      <trkpt lat="44.57062" lon="0.8897">
        <ele>178</ele>
        <time>2020-12-13T20:22:27Z</time>
      </trkpt>
      <trkpt lat="44.57034" lon="0.89005">
        <ele>178</ele>
        <time>2020-12-13T20:22:36Z</time>
      </trkpt>
      <trkpt lat="44.57007" lon="0.89037">
        <ele>178</ele>
        <time>2020-12-13T20:22:44Z</time>
      </trkpt>
      <trkpt lat="44.56987" lon="0.89063">
        <ele>176</ele>
        <time>2020-12-13T20:22:50Z</time>
      </trkpt>
      <trkpt lat="44.56968" lon="0.89073">
        <ele>176</ele>
        <time>2020-12-13T20:22:55Z</time>
      </trkpt>
      <trkpt lat="44.56958" lon="0.8909">
        <ele>176</ele>
        <time>2020-12-13T20:22:59Z</time>
      </trkpt>
      <trkpt lat="44.56984" lon="0.89134">
        <ele>174</ele>
        <time>2020-12-13T20:23:08Z</time>
      </trkpt>
      <trkpt lat="44.57005" lon="0.89177">
        <ele>175</ele>
        <time>2020-12-13T20:23:17Z</time>
      </trkpt>
      <trkpt lat="44.56997" lon="0.89206">
        <ele>176</ele>
        <time>2020-12-13T20:23:22Z</time>
      </trkpt>
      <trkpt lat="44.56954" lon="0.89237">
        <ele>176</ele>
        <time>2020-12-13T20:23:33Z</time>
      </trkpt>
      <trkpt lat="44.56894" lon="0.89276">
        <ele>177</ele>
        <time>2020-12-13T20:23:49Z</time>
      </trkpt>
      <trkpt lat="44.56875" lon="0.89281">
        <ele>177</ele>
        <time>2020-12-13T20:23:53Z</time>
      </trkpt>
      <trkpt lat="44.56837" lon="0.8929">
        <ele>176</ele>
        <time>2020-12-13T20:24:02Z</time>
      </trkpt>
      <trkpt lat="44.56806" lon="0.89294">
        <ele>176</ele>
        <time>2020-12-13T20:24:10Z</time>
      </trkpt>
      <trkpt lat="44.5678" lon="0.89298">
        <ele>176</ele>
        <time>2020-12-13T20:24:16Z</time>
      </trkpt>
      <trkpt lat="44.5675" lon="0.89303">
        <ele>175</ele>
        <time>2020-12-13T20:24:23Z</time>
      </trkpt>
      <trkpt lat="44.5673" lon="0.89339">
        <ele>177</ele>
        <time>2020-12-13T20:24:30Z</time>
      </trkpt>
      <trkpt lat="44.56712" lon="0.89359">
        <ele>178</ele>
        <time>2020-12-13T20:24:36Z</time>
      </trkpt>
      <trkpt lat="44.56685" lon="0.89369">
        <ele>178</ele>
        <time>2020-12-13T20:24:42Z</time>
      </trkpt>
      <trkpt lat="44.56664" lon="0.89365">
        <ele>176</ele>
        <time>2020-12-13T20:24:47Z</time>
      </trkpt>
      <trkpt lat="44.56629" lon="0.89383">
        <ele>178</ele>
        <time>2020-12-13T20:24:56Z</time>
      </trkpt>
      <trkpt lat="44.566" lon="0.8939">
        <ele>178</ele>
        <time>2020-12-13T20:25:03Z</time>
      </trkpt>
      <trkpt lat="44.56565" lon="0.89403">
        <ele>179</ele>
        <time>2020-12-13T20:25:11Z</time>
      </trkpt>
      <trkpt lat="44.56526" lon="0.89394">
        <ele>179</ele>
        <time>2020-12-13T20:25:21Z</time>
      </trkpt>
      <trkpt lat="44.56497" lon="0.8939">
        <ele>179</ele>
        <time>2020-12-13T20:25:27Z</time>
      </trkpt>
      <trkpt lat="44.5648" lon="0.89403">
        <ele>179</ele>
        <time>2020-12-13T20:25:32Z</time>
      </trkpt>
      <trkpt lat="44.56457" lon="0.89423">
        <ele>181</ele>
        <time>2020-12-13T20:25:38Z</time>
      </trkpt>
      <trkpt lat="44.5644" lon="0.89424">
        <ele>181</ele>
        <time>2020-12-13T20:25:42Z</time>
      </trkpt>
      <trkpt lat="44.56411" lon="0.89413">
        <ele>180</ele>
        <time>2020-12-13T20:25:49Z</time>
      </trkpt>
      <trkpt lat="44.56403" lon="0.89432">
        <ele>182</ele>
        <time>2020-12-13T20:25:53Z</time>
      </trkpt>
      <trkpt lat="44.56379" lon="0.89441">
        <ele>183</ele>
        <time>2020-12-13T20:25:59Z</time>
      </trkpt>
      <trkpt lat="44.5634" lon="0.89459">
        <ele>185</ele>
        <time>2020-12-13T20:26:08Z</time>
      </trkpt>
      <trkpt lat="44.56316" lon="0.89466">
        <ele>183</ele>
        <time>2020-12-13T20:26:14Z</time>
      </trkpt>
      <trkpt lat="44.56298" lon="0.89492">
        <ele>181</ele>
        <time>2020-12-13T20:26:20Z</time>
      </trkpt>
      <trkpt lat="44.56277" lon="0.89524">
        <ele>180</ele>
        <time>2020-12-13T20:26:27Z</time>
      </trkpt>
      <trkpt lat="44.56266" lon="0.89551">
        <ele>181</ele>
        <time>2020-12-13T20:26:32Z</time>
      </trkpt>
      <trkpt lat="44.56247" lon="0.89579">
        <ele>181</ele>
        <time>2020-12-13T20:26:39Z</time>
      </trkpt>
      <trkpt lat="44.56236" lon="0.89618">
        <ele>182</ele>
        <time>2020-12-13T20:26:46Z</time>
      </trkpt>
      <trkpt lat="44.56242" lon="0.89646">
        <ele>182</ele>
        <time>2020-12-13T20:26:51Z</time>
      </trkpt>
      <trkpt lat="44.56246" lon="0.89674">
        <ele>183</ele>
        <time>2020-12-13T20:26:55Z</time>
      </trkpt>
      <trkpt lat="44.56251" lon="0.89697">
        <ele>183</ele>
        <time>2020-12-13T20:26:59Z</time>
      </trkpt>
      <trkpt lat="44.56245" lon="0.89724">
        <ele>182</ele>
        <time>2020-12-13T20:27:04Z</time>
      </trkpt>
      <trkpt lat="44.5623" lon="0.89784">
        <ele>182</ele>
        <time>2020-12-13T20:27:15Z</time>
      </trkpt>
      <trkpt lat="44.56214" lon="0.89834">
        <ele>184</ele>
        <time>2020-12-13T20:27:24Z</time>
      </trkpt>
      <trkpt lat="44.56176" lon="0.89889">
        <ele>192</ele>
        <time>2020-12-13T20:27:37Z</time>
      </trkpt>
      <trkpt lat="44.56151" lon="0.89916">
        <ele>194</ele>
        <time>2020-12-13T20:27:44Z</time>
      </trkpt>
      <trkpt lat="44.56139" lon="0.89942">
        <ele>194</ele>
        <time>2020-12-13T20:27:49Z</time>
      </trkpt>
      <trkpt lat="44.56125" lon="0.89967">
        <ele>194</ele>
        <time>2020-12-13T20:27:54Z</time>
      </trkpt>
      <trkpt lat="44.56125" lon="0.89987">
        <ele>194</ele>
        <time>2020-12-13T20:27:58Z</time>
      </trkpt>
      <trkpt lat="44.56147" lon="0.90074">
        <ele>201</ele>
        <time>2020-12-13T20:28:13Z</time>
      </trkpt>
      <trkpt lat="44.56174" lon="0.90161">
        <ele>205</ele>
        <time>2020-12-13T20:28:29Z</time>
      </trkpt>
      <trkpt lat="44.56197" lon="0.90244">
        <ele>206</ele>
        <time>2020-12-13T20:28:44Z</time>
      </trkpt>
      <trkpt lat="44.56226" lon="0.90324">
        <ele>208</ele>
        <time>2020-12-13T20:28:59Z</time>
      </trkpt>
      <trkpt lat="44.56239" lon="0.9037">
        <ele>209</ele>
        <time>2020-12-13T20:29:07Z</time>
      </trkpt>
      <trkpt lat="44.56213" lon="0.90415">
        <ele>210</ele>
        <time>2020-12-13T20:29:17Z</time>
      </trkpt>
      <trkpt lat="44.56192" lon="0.90471">
        <ele>211</ele>
        <time>2020-12-13T20:29:27Z</time>
      </trkpt>
      <trkpt lat="44.56172" lon="0.90521">
        <ele>212</ele>
        <time>2020-12-13T20:29:37Z</time>
      </trkpt>
      <trkpt lat="44.56161" lon="0.90557">
        <ele>211</ele>
        <time>2020-12-13T20:29:43Z</time>
      </trkpt>
      <trkpt lat="44.5615" lon="0.906">
        <ele>210</ele>
        <time>2020-12-13T20:29:51Z</time>
      </trkpt>
      <trkpt lat="44.56146" lon="0.90646">
        <ele>211</ele>
        <time>2020-12-13T20:29:58Z</time>
      </trkpt>
      <trkpt lat="44.56136" lon="0.9068">
        <ele>212</ele>
        <time>2020-12-13T20:30:05Z</time>
      </trkpt>
      <trkpt lat="44.56115" lon="0.90717">
        <ele>212</ele>
        <time>2020-12-13T20:30:12Z</time>
      </trkpt>
      <trkpt lat="44.56093" lon="0.90768">
        <ele>214</ele>
        <time>2020-12-13T20:30:22Z</time>
      </trkpt>
      <trkpt lat="44.56083" lon="0.90808">
        <ele>215</ele>
        <time>2020-12-13T20:30:29Z</time>
      </trkpt>
      <trkpt lat="44.56077" lon="0.90841">
        <ele>215</ele>
        <time>2020-12-13T20:30:35Z</time>
      </trkpt>
      <trkpt lat="44.56101" lon="0.90892">
        <ele>213</ele>
        <time>2020-12-13T20:30:45Z</time>
      </trkpt>
      <trkpt lat="44.56112" lon="0.90957">
        <ele>209</ele>
        <time>2020-12-13T20:30:56Z</time>
      </trkpt>
      <trkpt lat="44.56117" lon="0.90975">
        <ele>207</ele>
        <time>2020-12-13T20:31:00Z</time>
      </trkpt>
      <trkpt lat="44.56148" lon="0.91038">
        <ele>198</ele>
        <time>2020-12-13T20:31:12Z</time>
      </trkpt>
      <trkpt lat="44.56161" lon="0.91077">
        <ele>194</ele>
        <time>2020-12-13T20:31:19Z</time>
      </trkpt>
      <trkpt lat="44.56176" lon="0.91108">
        <ele>195</ele>
        <time>2020-12-13T20:31:26Z</time>
      </trkpt>
      <trkpt lat="44.56181" lon="0.91154">
        <ele>197</ele>
        <time>2020-12-13T20:31:33Z</time>
      </trkpt>
      <trkpt lat="44.56205" lon="0.91219">
        <ele>202</ele>
        <time>2020-12-13T20:31:46Z</time>
      </trkpt>
      <trkpt lat="44.56224" lon="0.91267">
        <ele>204</ele>
        <time>2020-12-13T20:31:55Z</time>
      </trkpt>
      <trkpt lat="44.56241" lon="0.91342">
        <ele>207</ele>
        <time>2020-12-13T20:32:08Z</time>
      </trkpt>
      <trkpt lat="44.56253" lon="0.9139">
        <ele>212</ele>
        <time>2020-12-13T20:32:16Z</time>
      </trkpt>
      <trkpt lat="44.5624" lon="0.91445">
        <ele>215</ele>
        <time>2020-12-13T20:32:26Z</time>
      </trkpt>
      <trkpt lat="44.56223" lon="0.91498">
        <ele>216</ele>
        <time>2020-12-13T20:32:36Z</time>
      </trkpt>
      <trkpt lat="44.56217" lon="0.91551">
        <ele>217</ele>
        <time>2020-12-13T20:32:45Z</time>
      </trkpt>
      <trkpt lat="44.56212" lon="0.91587">
        <ele>217</ele>
        <time>2020-12-13T20:32:51Z</time>
      </trkpt>
      <trkpt lat="44.56241" lon="0.91609">
        <ele>214</ele>
        <time>2020-12-13T20:32:58Z</time>
      </trkpt>
      <trkpt lat="44.56287" lon="0.91609">
        <ele>215</ele>
        <time>2020-12-13T20:33:09Z</time>
      </trkpt>
      <trkpt lat="44.56322" lon="0.91622">
        <ele>215</ele>
        <time>2020-12-13T20:33:18Z</time>
      </trkpt>
      <trkpt lat="44.56358" lon="0.91651">
        <ele>212</ele>
        <time>2020-12-13T20:33:27Z</time>
      </trkpt>
      <trkpt lat="44.56374" lon="0.9166">
        <ele>212</ele>
        <time>2020-12-13T20:33:31Z</time>
      </trkpt>
      <trkpt lat="44.56386" lon="0.91685">
        <ele>212</ele>
        <time>2020-12-13T20:33:36Z</time>
      </trkpt>
      <trkpt lat="44.56388" lon="0.91704">
        <ele>212</ele>
        <time>2020-12-13T20:33:39Z</time>
      </trkpt>
      <trkpt lat="44.56401" lon="0.91729">
        <ele>214</ele>
        <time>2020-12-13T20:33:45Z</time>
      </trkpt>
      <trkpt lat="44.56424" lon="0.91751">
        <ele>217</ele>
        <time>2020-12-13T20:33:51Z</time>
      </trkpt>
      <trkpt lat="44.56437" lon="0.9178">
        <ele>219</ele>
        <time>2020-12-13T20:33:57Z</time>
      </trkpt>
      <trkpt lat="44.56446" lon="0.91826">
        <ele>220</ele>
        <time>2020-12-13T20:34:05Z</time>
      </trkpt>
      <trkpt lat="44.56446" lon="0.91867">
        <ele>219</ele>
        <time>2020-12-13T20:34:12Z</time>
      </trkpt>
      <trkpt lat="44.56431" lon="0.91889">
        <ele>219</ele>
        <time>2020-12-13T20:34:17Z</time>
      </trkpt>
      <trkpt lat="44.56399" lon="0.91914">
        <ele>221</ele>
        <time>2020-12-13T20:34:25Z</time>
      </trkpt>
      <trkpt lat="44.56347" lon="0.91948">
        <ele>226</ele>
        <time>2020-12-13T20:34:39Z</time>
      </trkpt>
      <trkpt lat="44.56319" lon="0.91962">
        <ele>228</ele>
        <time>2020-12-13T20:34:46Z</time>
      </trkpt>
      <trkpt lat="44.56286" lon="0.91971">
        <ele>229</ele>
        <time>2020-12-13T20:34:53Z</time>
      </trkpt>
      <trkpt lat="44.56237" lon="0.91985">
        <ele>230</ele>
        <time>2020-12-13T20:35:05Z</time>
      </trkpt>
      <trkpt lat="44.56194" lon="0.91997">
        <ele>230</ele>
        <time>2020-12-13T20:35:15Z</time>
      </trkpt>
      <trkpt lat="44.56113" lon="0.92015">
        <ele>225</ele>
        <time>2020-12-13T20:35:34Z</time>
      </trkpt>
      <trkpt lat="44.56095" lon="0.92021">
        <ele>224</ele>
        <time>2020-12-13T20:35:39Z</time>
      </trkpt>
      <trkpt lat="44.56067" lon="0.92047">
        <ele>218</ele>
        <time>2020-12-13T20:35:47Z</time>
      </trkpt>
      <trkpt lat="44.56059" lon="0.92095">
        <ele>214</ele>
        <time>2020-12-13T20:35:55Z</time>
      </trkpt>
      <trkpt lat="44.56047" lon="0.9216">
        <ele>211</ele>
        <time>2020-12-13T20:36:06Z</time>
      </trkpt>
      <trkpt lat="44.56019" lon="0.92251">
        <ele>213</ele>
        <time>2020-12-13T20:36:22Z</time>
      </trkpt>
      <trkpt lat="44.56008" lon="0.92308">
        <ele>214</ele>
        <time>2020-12-13T20:36:32Z</time>
      </trkpt>
      <trkpt lat="44.55998" lon="0.92343">
        <ele>214</ele>
        <time>2020-12-13T20:36:39Z</time>
      </trkpt>
      <trkpt lat="44.56001" lon="0.9239">
        <ele>215</ele>
        <time>2020-12-13T20:36:46Z</time>
      </trkpt>
      <trkpt lat="44.55976" lon="0.92439">
        <ele>215</ele>
        <time>2020-12-13T20:36:56Z</time>
      </trkpt>
      <trkpt lat="44.55954" lon="0.92491">
        <ele>215</ele>
        <time>2020-12-13T20:37:07Z</time>
      </trkpt>
      <trkpt lat="44.55925" lon="0.92606">
        <ele>218</ele>
        <time>2020-12-13T20:37:27Z</time>
      </trkpt>
      <trkpt lat="44.55908" lon="0.92646">
        <ele>219</ele>
        <time>2020-12-13T20:37:35Z</time>
      </trkpt>
      <trkpt lat="44.55859" lon="0.92728">
        <ele>213</ele>
        <time>2020-12-13T20:37:52Z</time>
      </trkpt>
      <trkpt lat="44.55821" lon="0.92789">
        <ele>209</ele>
        <time>2020-12-13T20:38:06Z</time>
      </trkpt>
      <trkpt lat="44.55814" lon="0.92892">
        <ele>209</ele>
        <time>2020-12-13T20:38:23Z</time>
      </trkpt>
      <trkpt lat="44.55805" lon="0.92976">
        <ele>211</ele>
        <time>2020-12-13T20:38:37Z</time>
      </trkpt>
      <trkpt lat="44.55796" lon="0.93043">
        <ele>211</ele>
        <time>2020-12-13T20:38:49Z</time>
      </trkpt>
      <trkpt lat="44.55768" lon="0.93105">
        <ele>210</ele>
        <time>2020-12-13T20:39:01Z</time>
      </trkpt>
      <trkpt lat="44.55746" lon="0.93201">
        <ele>207</ele>
        <time>2020-12-13T20:39:18Z</time>
      </trkpt>
      <trkpt lat="44.55734" lon="0.93338">
        <ele>215</ele>
        <time>2020-12-13T20:39:41Z</time>
      </trkpt>
      <trkpt lat="44.55724" lon="0.93389">
        <ele>218</ele>
        <time>2020-12-13T20:39:49Z</time>
      </trkpt>
      <trkpt lat="44.55695" lon="0.93459">
        <ele>217</ele>
        <time>2020-12-13T20:40:03Z</time>
      </trkpt>
      <trkpt lat="44.55668" lon="0.93543">
        <ele>209</ele>
        <time>2020-12-13T20:40:18Z</time>
      </trkpt>
      <trkpt lat="44.5564" lon="0.93586">
        <ele>202</ele>
        <time>2020-12-13T20:40:28Z</time>
      </trkpt>
      <trkpt lat="44.5561" lon="0.93611">
        <ele>197</ele>
        <time>2020-12-13T20:40:36Z</time>
      </trkpt>
      <trkpt lat="44.55582" lon="0.93627">
        <ele>194</ele>
        <time>2020-12-13T20:40:43Z</time>
      </trkpt>
      <trkpt lat="44.55609" lon="0.93665">
        <ele>190</ele>
        <time>2020-12-13T20:40:52Z</time>
      </trkpt>
      <trkpt lat="44.5563" lon="0.93683">
        <ele>189</ele>
        <time>2020-12-13T20:40:58Z</time>
      </trkpt>
      <trkpt lat="44.55672" lon="0.9369">
        <ele>189</ele>
        <time>2020-12-13T20:41:08Z</time>
      </trkpt>
      <trkpt lat="44.55706" lon="0.9372">
        <ele>187</ele>
        <time>2020-12-13T20:41:17Z</time>
      </trkpt>
      <trkpt lat="44.55745" lon="0.93751">
        <ele>183</ele>
        <time>2020-12-13T20:41:27Z</time>
      </trkpt>
      <trkpt lat="44.55788" lon="0.93771">
        <ele>179</ele>
        <time>2020-12-13T20:41:38Z</time>
      </trkpt>
      <trkpt lat="44.55811" lon="0.93786">
        <ele>176</ele>
        <time>2020-12-13T20:41:44Z</time>
      </trkpt>
      <trkpt lat="44.55835" lon="0.93766">
        <ele>178</ele>
        <time>2020-12-13T20:41:50Z</time>
      </trkpt>
      <trkpt lat="44.55864" lon="0.93739">
        <ele>176</ele>
        <time>2020-12-13T20:41:59Z</time>
      </trkpt>
      <trkpt lat="44.55882" lon="0.93645">
        <ele>184</ele>
        <time>2020-12-13T20:42:15Z</time>
      </trkpt>
      <trkpt lat="44.55909" lon="0.9353">
        <ele>188</ele>
        <time>2020-12-13T20:42:35Z</time>
      </trkpt>
      <trkpt lat="44.55956" lon="0.93404">
        <ele>179</ele>
        <time>2020-12-13T20:42:59Z</time>
      </trkpt>
      <trkpt lat="44.55976" lon="0.93331">
        <ele>175</ele>
        <time>2020-12-13T20:43:12Z</time>
      </trkpt>
      <trkpt lat="44.56023" lon="0.93295">
        <ele>173</ele>
        <time>2020-12-13T20:43:24Z</time>
      </trkpt>
      <trkpt lat="44.56098" lon="0.93273">
        <ele>176</ele>
        <time>2020-12-13T20:43:42Z</time>
      </trkpt>
      <trkpt lat="44.56149" lon="0.93275">
        <ele>181</ele>
        <time>2020-12-13T20:43:54Z</time>
      </trkpt>
      <trkpt lat="44.56195" lon="0.9325">
        <ele>181</ele>
        <time>2020-12-13T20:44:05Z</time>
      </trkpt>
      <trkpt lat="44.56244" lon="0.93201">
        <ele>180</ele>
        <time>2020-12-13T20:44:20Z</time>
      </trkpt>
      <trkpt lat="44.5626" lon="0.93179">
        <ele>179</ele>
        <time>2020-12-13T20:44:25Z</time>
      </trkpt>
      <trkpt lat="44.56304" lon="0.93202">
        <ele>186</ele>
        <time>2020-12-13T20:44:36Z</time>
      </trkpt>
      <trkpt lat="44.56337" lon="0.93267">
        <ele>193</ele>
        <time>2020-12-13T20:44:49Z</time>
      </trkpt>
      <trkpt lat="44.56413" lon="0.93261">
        <ele>196</ele>
        <time>2020-12-13T20:45:07Z</time>
      </trkpt>
      <trkpt lat="44.56483" lon="0.93249">
        <ele>204</ele>
        <time>2020-12-13T20:45:23Z</time>
      </trkpt>
      <trkpt lat="44.56537" lon="0.93236">
        <ele>213</ele>
        <time>2020-12-13T20:45:36Z</time>
      </trkpt>
      <trkpt lat="44.56589" lon="0.93236">
        <ele>223</ele>
        <time>2020-12-13T20:45:48Z</time>
      </trkpt>
      <trkpt lat="44.56629" lon="0.93266">
        <ele>231</ele>
        <time>2020-12-13T20:45:59Z</time>
      </trkpt>
      <trkpt lat="44.56689" lon="0.93277">
        <ele>239</ele>
        <time>2020-12-13T20:46:13Z</time>
      </trkpt>
      <trkpt lat="44.56723" lon="0.93244">
        <ele>244</ele>
        <time>2020-12-13T20:46:23Z</time>
      </trkpt>
      <trkpt lat="44.5681" lon="0.93298">
        <ele>241</ele>
        <time>2020-12-13T20:46:45Z</time>
      </trkpt>
      <trkpt lat="44.56813" lon="0.9326">
        <ele>242</ele>
        <time>2020-12-13T20:46:51Z</time>
      </trkpt>
      <trkpt lat="44.56791" lon="0.93218">
        <ele>243</ele>
        <time>2020-12-13T20:47:00Z</time>
      </trkpt>
      <trkpt lat="44.56764" lon="0.93146">
        <ele>245</ele>
        <time>2020-12-13T20:47:13Z</time>
      </trkpt>
      <trkpt lat="44.56765" lon="0.93057">
        <ele>245</ele>
        <time>2020-12-13T20:47:28Z</time>
      </trkpt>
      <trkpt lat="44.56764" lon="0.92986">
        <ele>246</ele>
        <time>2020-12-13T20:47:40Z</time>
      </trkpt>
      <trkpt lat="44.56818" lon="0.92966">
        <ele>246</ele>
        <time>2020-12-13T20:47:53Z</time>
      </trkpt>
      <trkpt lat="44.56852" lon="0.92958">
        <ele>245</ele>
        <time>2020-12-13T20:48:01Z</time>
      </trkpt>
      <trkpt lat="44.56899" lon="0.92932">
        <ele>245</ele>
        <time>2020-12-13T20:48:13Z</time>
      </trkpt>
      <trkpt lat="44.56955" lon="0.9293">
        <ele>247</ele>
        <time>2020-12-13T20:48:26Z</time>
      </trkpt>
      <trkpt lat="44.5701" lon="0.92948">
        <ele>248</ele>
        <time>2020-12-13T20:48:39Z</time>
      </trkpt>
      <trkpt lat="44.57069" lon="0.9296">
        <ele>248</ele>
        <time>2020-12-13T20:48:53Z</time>
      </trkpt>
      <trkpt lat="44.57129" lon="0.92953">
        <ele>248</ele>
        <time>2020-12-13T20:49:07Z</time>
      </trkpt>
      <trkpt lat="44.57157" lon="0.92924">
        <ele>249</ele>
        <time>2020-12-13T20:49:15Z</time>
      </trkpt>
      <trkpt lat="44.57192" lon="0.92899">
        <ele>249</ele>
        <time>2020-12-13T20:49:24Z</time>
      </trkpt>
      <trkpt lat="44.57243" lon="0.92892">
        <ele>248</ele>
        <time>2020-12-13T20:49:36Z</time>
      </trkpt>
      <trkpt lat="44.57298" lon="0.92879">
        <ele>247</ele>
        <time>2020-12-13T20:49:49Z</time>
      </trkpt>
      <trkpt lat="44.57363" lon="0.92841">
        <ele>246</ele>
        <time>2020-12-13T20:50:06Z</time>
      </trkpt>
      <trkpt lat="44.57412" lon="0.92824">
        <ele>246</ele>
        <time>2020-12-13T20:50:18Z</time>
      </trkpt>
      <trkpt lat="44.57441" lon="0.92817">
        <ele>244</ele>
        <time>2020-12-13T20:50:24Z</time>
      </trkpt>
      <trkpt lat="44.5746" lon="0.92887">
        <ele>242</ele>
        <time>2020-12-13T20:50:37Z</time>
      </trkpt>
      <trkpt lat="44.5747" lon="0.92942">
        <ele>240</ele>
        <time>2020-12-13T20:50:46Z</time>
      </trkpt>
      <trkpt lat="44.57505" lon="0.92939">
        <ele>239</ele>
        <time>2020-12-13T20:50:55Z</time>
      </trkpt>
      <trkpt lat="44.57513" lon="0.92891">
        <ele>239</ele>
        <time>2020-12-13T20:51:03Z</time>
      </trkpt>
      <trkpt lat="44.57529" lon="0.92861">
        <ele>238</ele>
        <time>2020-12-13T20:51:09Z</time>
      </trkpt>
      <trkpt lat="44.57546" lon="0.92842">
        <ele>237</ele>
        <time>2020-12-13T20:51:14Z</time>
      </trkpt>
      <trkpt lat="44.57602" lon="0.92817">
        <ele>238</ele>
        <time>2020-12-13T20:51:28Z</time>
      </trkpt>
      <trkpt lat="44.57659" lon="0.92793">
        <ele>241</ele>
        <time>2020-12-13T20:51:42Z</time>
      </trkpt>
      <trkpt lat="44.57685" lon="0.92788">
        <ele>243</ele>
        <time>2020-12-13T20:51:48Z</time>
      </trkpt>
      <trkpt lat="44.57739" lon="0.92762">
        <ele>248</ele>
        <time>2020-12-13T20:52:01Z</time>
      </trkpt>
      <trkpt lat="44.57767" lon="0.92746">
        <ele>249</ele>
        <time>2020-12-13T20:52:08Z</time>
      </trkpt>
      <trkpt lat="44.57809" lon="0.9278">
        <ele>249</ele>
        <time>2020-12-13T20:52:20Z</time>
      </trkpt>
      <trkpt lat="44.57835" lon="0.92804">
        <ele>248</ele>
        <time>2020-12-13T20:52:27Z</time>
      </trkpt>
      <trkpt lat="44.57865" lon="0.92858">
        <ele>243</ele>
        <time>2020-12-13T20:52:38Z</time>
      </trkpt>
      <trkpt lat="44.57885" lon="0.92926">
        <ele>239</ele>
        <time>2020-12-13T20:52:50Z</time>
      </trkpt>
      <trkpt lat="44.57894" lon="0.92965">
        <ele>239</ele>
        <time>2020-12-13T20:52:57Z</time>
      </trkpt>
      <trkpt lat="44.57938" lon="0.93016">
        <ele>236</ele>
        <time>2020-12-13T20:53:11Z</time>
      </trkpt>
      <trkpt lat="44.57996" lon="0.93043">
        <ele>229</ele>
        <time>2020-12-13T20:53:25Z</time>
      </trkpt>
      <trkpt lat="44.58061" lon="0.93058">
        <ele>220</ele>
        <time>2020-12-13T20:53:40Z</time>
      </trkpt>
      <trkpt lat="44.58098" lon="0.93073">
        <ele>216</ele>
        <time>2020-12-13T20:53:49Z</time>
      </trkpt>
      <trkpt lat="44.58148" lon="0.93057">
        <ele>215</ele>
        <time>2020-12-13T20:54:01Z</time>
      </trkpt>
      <trkpt lat="44.58208" lon="0.93014">
        <ele>222</ele>
        <time>2020-12-13T20:54:17Z</time>
      </trkpt>
      <trkpt lat="44.58246" lon="0.92996">
        <ele>227</ele>
        <time>2020-12-13T20:54:26Z</time>
      </trkpt>
      <trkpt lat="44.58272" lon="0.92897">
        <ele>227</ele>
        <time>2020-12-13T20:54:44Z</time>
      </trkpt>
      <trkpt lat="44.58281" lon="0.92832">
        <ele>230</ele>
        <time>2020-12-13T20:54:55Z</time>
      </trkpt>
      <trkpt lat="44.58272" lon="0.92746">
        <ele>238</ele>
        <time>2020-12-13T20:55:09Z</time>
      </trkpt>
      <trkpt lat="44.5826" lon="0.92679">
        <ele>241</ele>
        <time>2020-12-13T20:55:21Z</time>
      </trkpt>
      <trkpt lat="44.58245" lon="0.9261">
        <ele>242</ele>
        <time>2020-12-13T20:55:33Z</time>
      </trkpt>
      <trkpt lat="44.58237" lon="0.9254">
        <ele>242</ele>
        <time>2020-12-13T20:55:45Z</time>
      </trkpt>
      <trkpt lat="44.58232" lon="0.92504">
        <ele>241</ele>
        <time>2020-12-13T20:55:51Z</time>
      </trkpt>
      <trkpt lat="44.58313" lon="0.92467">
        <ele>237</ele>
        <time>2020-12-13T20:56:11Z</time>
      </trkpt>
      <trkpt lat="44.58394" lon="0.92476">
        <ele>239</ele>
        <time>2020-12-13T20:56:30Z</time>
      </trkpt>
      <trkpt lat="44.58471" lon="0.92483">
        <ele>243</ele>
        <time>2020-12-13T20:56:48Z</time>
      </trkpt>
      <trkpt lat="44.58525" lon="0.9249">
        <ele>244</ele>
        <time>2020-12-13T20:57:00Z</time>
      </trkpt>
      <trkpt lat="44.58577" lon="0.92497">
        <ele>241</ele>
        <time>2020-12-13T20:57:12Z</time>
      </trkpt>
      <trkpt lat="44.58631" lon="0.92521">
        <ele>240</ele>
        <time>2020-12-13T20:57:26Z</time>
      </trkpt>
      <trkpt lat="44.58666" lon="0.92535">
        <ele>241</ele>
        <time>2020-12-13T20:57:34Z</time>
      </trkpt>
      <trkpt lat="44.58652" lon="0.92474">
        <ele>242</ele>
        <time>2020-12-13T20:57:45Z</time>
      </trkpt>
      <trkpt lat="44.58639" lon="0.92375">
        <ele>246</ele>
        <time>2020-12-13T20:58:02Z</time>
      </trkpt>
      <trkpt lat="44.58618" lon="0.92284">
        <ele>246</ele>
        <time>2020-12-13T20:58:17Z</time>
      </trkpt>
      <trkpt lat="44.58605" lon="0.9223">
        <ele>245</ele>
        <time>2020-12-13T20:58:27Z</time>
      </trkpt>
      <trkpt lat="44.58564" lon="0.92127">
        <ele>241</ele>
        <time>2020-12-13T20:58:47Z</time>
      </trkpt>
      <trkpt lat="44.58613" lon="0.9208">
        <ele>241</ele>
        <time>2020-12-13T20:59:00Z</time>
      </trkpt>
      <trkpt lat="44.58634" lon="0.92065">
        <ele>242</ele>
        <time>2020-12-13T20:59:06Z</time>
      </trkpt>
      <trkpt lat="44.58633" lon="0.92026">
        <ele>242</ele>
        <time>2020-12-13T20:59:12Z</time>
      </trkpt>
      <trkpt lat="44.58651" lon="0.92001">
        <ele>244</ele>
        <time>2020-12-13T20:59:18Z</time>
      </trkpt>
      <trkpt lat="44.58666" lon="0.91987">
        <ele>245</ele>
        <time>2020-12-13T20:59:23Z</time>
      </trkpt>
      <trkpt lat="44.58686" lon="0.91997">
        <ele>245</ele>
        <time>2020-12-13T20:59:28Z</time>
      </trkpt>
      <trkpt lat="44.58736" lon="0.91946">
        <ele>247</ele>
        <time>2020-12-13T20:59:42Z</time>
      </trkpt>
      <trkpt lat="44.58798" lon="0.91881">
        <ele>249</ele>
        <time>2020-12-13T21:00:00Z</time>
      </trkpt>
      <trkpt lat="44.58864" lon="0.91815">
        <ele>251</ele>
        <time>2020-12-13T21:00:19Z</time>
      </trkpt>
      <trkpt lat="44.58897" lon="0.91901">
        <ele>252</ele>
        <time>2020-12-13T21:00:35Z</time>
      </trkpt>
      <trkpt lat="44.5899" lon="0.9186">
        <ele>253</ele>
        <time>2020-12-13T21:00:58Z</time>
      </trkpt>
      <trkpt lat="44.5903" lon="0.91839">
        <ele>250</ele>
        <time>2020-12-13T21:01:08Z</time>
      </trkpt>
      <trkpt lat="44.59199" lon="0.91809">
        <ele>234</ele>
        <time>2020-12-13T21:01:48Z</time>
      </trkpt>
      <trkpt lat="44.59229" lon="0.91804">
        <ele>232</ele>
        <time>2020-12-13T21:01:55Z</time>
      </trkpt>
      <trkpt lat="44.59276" lon="0.91788">
        <ele>231</ele>
        <time>2020-12-13T21:02:06Z</time>
      </trkpt>
      <trkpt lat="44.59338" lon="0.9175">
        <ele>231</ele>
        <time>2020-12-13T21:02:22Z</time>
      </trkpt>
      <trkpt lat="44.59414" lon="0.91726">
        <ele>224</ele>
        <time>2020-12-13T21:02:40Z</time>
      </trkpt>
      <trkpt lat="44.59445" lon="0.91719">
        <ele>223</ele>
        <time>2020-12-13T21:02:47Z</time>
      </trkpt>
      <trkpt lat="44.59485" lon="0.91699">
        <ele>223</ele>
        <time>2020-12-13T21:02:57Z</time>
      </trkpt>
      <trkpt lat="44.59511" lon="0.9166">
        <ele>224</ele>
        <time>2020-12-13T21:03:06Z</time>
      </trkpt>
      <trkpt lat="44.59551" lon="0.91638">
        <ele>225</ele>
        <time>2020-12-13T21:03:16Z</time>
      </trkpt>
      <trkpt lat="44.59601" lon="0.91617">
        <ele>226</ele>
        <time>2020-12-13T21:03:28Z</time>
      </trkpt>
      <trkpt lat="44.59642" lon="0.91588">
        <ele>225</ele>
        <time>2020-12-13T21:03:39Z</time>
      </trkpt>
      <trkpt lat="44.59696" lon="0.91578">
        <ele>226</ele>
        <time>2020-12-13T21:03:52Z</time>
      </trkpt>
      <trkpt lat="44.59681" lon="0.9172">
        <ele>231</ele>
        <time>2020-12-13T21:04:16Z</time>
      </trkpt>
      <trkpt lat="44.59676" lon="0.91891">
        <ele>237</ele>
        <time>2020-12-13T21:04:44Z</time>
      </trkpt>
      <trkpt lat="44.59659" lon="0.91977">
        <ele>239</ele>
        <time>2020-12-13T21:04:59Z</time>
      </trkpt>
      <trkpt lat="44.59765" lon="0.91887">
        <ele>229</ele>
        <time>2020-12-13T21:05:28Z</time>
      </trkpt>
      <trkpt lat="44.59884" lon="0.91814">
        <ele>220</ele>
        <time>2020-12-13T21:05:58Z</time>
      </trkpt>
      <trkpt lat="44.60003" lon="0.91765">
        <ele>217</ele>
        <time>2020-12-13T21:06:27Z</time>
      </trkpt>
      <trkpt lat="44.60077" lon="0.91722">
        <ele>213</ele>
        <time>2020-12-13T21:06:46Z</time>
      </trkpt>
      <trkpt lat="44.60093" lon="0.9181">
        <ele>212</ele>
        <time>2020-12-13T21:07:01Z</time>
      </trkpt>
      <trkpt lat="44.60156" lon="0.91868">
        <ele>215</ele>
        <time>2020-12-13T21:07:19Z</time>
      </trkpt>
      <trkpt lat="44.60219" lon="0.91943">
        <ele>216</ele>
        <time>2020-12-13T21:07:38Z</time>
      </trkpt>
      <trkpt lat="44.60248" lon="0.91992">
        <ele>221</ele>
        <time>2020-12-13T21:07:49Z</time>
      </trkpt>
      <trkpt lat="44.6035" lon="0.91984">
        <ele>227</ele>
        <time>2020-12-13T21:08:12Z</time>
      </trkpt>
      <trkpt lat="44.60353" lon="0.91679">
        <ele>209</ele>
        <time>2020-12-13T21:09:03Z</time>
      </trkpt>
      <trkpt lat="44.60396" lon="0.9166">
        <ele>213</ele>
        <time>2020-12-13T21:09:14Z</time>
      </trkpt>
      <trkpt lat="44.60446" lon="0.91627">
        <ele>209</ele>
        <time>2020-12-13T21:09:27Z</time>
      </trkpt>
      <trkpt lat="44.60593" lon="0.91595">
        <ele>203</ele>
        <time>2020-12-13T21:10:01Z</time>
      </trkpt>
      <trkpt lat="44.60663" lon="0.91673">
        <ele>205</ele>
        <time>2020-12-13T21:10:22Z</time>
      </trkpt>
      <trkpt lat="44.60752" lon="0.91632">
        <ele>198</ele>
        <time>2020-12-13T21:10:44Z</time>
      </trkpt>
      <trkpt lat="44.60833" lon="0.91559">
        <ele>197</ele>
        <time>2020-12-13T21:11:06Z</time>
      </trkpt>
      <trkpt lat="44.60886" lon="0.91606">
        <ele>195</ele>
        <time>2020-12-13T21:11:21Z</time>
      </trkpt>
      <trkpt lat="44.60931" lon="0.91559">
        <ele>191</ele>
        <time>2020-12-13T21:11:34Z</time>
      </trkpt>
      <trkpt lat="44.60984" lon="0.91522">
        <ele>188</ele>
        <time>2020-12-13T21:11:48Z</time>
      </trkpt>
      <trkpt lat="44.60987" lon="0.91486">
        <ele>185</ele>
        <time>2020-12-13T21:11:54Z</time>
      </trkpt>
      <trkpt lat="44.60984" lon="0.91321">
        <ele>175</ele>
        <time>2020-12-13T21:12:21Z</time>
      </trkpt>
      <trkpt lat="44.61034" lon="0.91175">
        <ele>177</ele>
        <time>2020-12-13T21:12:48Z</time>
      </trkpt>
      <trkpt lat="44.61071" lon="0.91211">
        <ele>179</ele>
        <time>2020-12-13T21:12:59Z</time>
      </trkpt>
      <trkpt lat="44.61108" lon="0.91132">
        <ele>184</ele>
        <time>2020-12-13T21:13:15Z</time>
      </trkpt>
      <trkpt lat="44.61219" lon="0.91119">
        <ele>194</ele>
        <time>2020-12-13T21:13:41Z</time>
      </trkpt>
      <trkpt lat="44.61309" lon="0.91117">
        <ele>199</ele>
        <time>2020-12-13T21:14:02Z</time>
      </trkpt>
      <trkpt lat="44.61416" lon="0.9111">
        <ele>199</ele>
        <time>2020-12-13T21:14:27Z</time>
      </trkpt>
      <trkpt lat="44.61415" lon="0.91014">
        <ele>202</ele>
        <time>2020-12-13T21:14:43Z</time>
      </trkpt>
      <trkpt lat="44.61413" lon="0.90928">
        <ele>207</ele>
        <time>2020-12-13T21:14:57Z</time>
      </trkpt>
      <trkpt lat="44.61415" lon="0.9087">
        <ele>209</ele>
        <time>2020-12-13T21:15:07Z</time>
      </trkpt>
      <trkpt lat="44.61419" lon="0.9078">
        <ele>214</ele>
        <time>2020-12-13T21:15:22Z</time>
      </trkpt>
      <trkpt lat="44.61413" lon="0.90681">
        <ele>220</ele>
        <time>2020-12-13T21:15:38Z</time>
      </trkpt>
      <trkpt lat="44.61387" lon="0.90589">
        <ele>227</ele>
        <time>2020-12-13T21:15:55Z</time>
      </trkpt>
      <trkpt lat="44.61381" lon="0.90516">
        <ele>230</ele>
        <time>2020-12-13T21:16:07Z</time>
      </trkpt>
      <trkpt lat="44.61389" lon="0.9046">
        <ele>229</ele>
        <time>2020-12-13T21:16:16Z</time>
      </trkpt>
      <trkpt lat="44.61403" lon="0.90398">
        <ele>227</ele>
        <time>2020-12-13T21:16:27Z</time>
      </trkpt>
      <trkpt lat="44.61441" lon="0.90359">
        <ele>226</ele>
        <time>2020-12-13T21:16:38Z</time>
      </trkpt>
      <trkpt lat="44.61499" lon="0.9034">
        <ele>228</ele>
        <time>2020-12-13T21:16:52Z</time>
      </trkpt>
      <trkpt lat="44.61549" lon="0.90316">
        <ele>227</ele>
        <time>2020-12-13T21:17:04Z</time>
      </trkpt>
      <trkpt lat="44.61519" lon="0.90254">
        <ele>225</ele>
        <time>2020-12-13T21:17:17Z</time>
      </trkpt>
      <trkpt lat="44.61484" lon="0.90194">
        <ele>224</ele>
        <time>2020-12-13T21:17:30Z</time>
      </trkpt>
      <trkpt lat="44.61439" lon="0.90121">
        <ele>220</ele>
        <time>2020-12-13T21:17:46Z</time>
      </trkpt>
      <trkpt lat="44.61409" lon="0.90076">
        <ele>219</ele>
        <time>2020-12-13T21:17:56Z</time>
      </trkpt>
      <trkpt lat="44.61328" lon="0.9008">
        <ele>213</ele>
        <time>2020-12-13T21:18:15Z</time>
      </trkpt>
      <trkpt lat="44.61228" lon="0.90085">
        <ele>211</ele>
        <time>2020-12-13T21:18:38Z</time>
      </trkpt>
      <trkpt lat="44.61178" lon="0.90093">
        <ele>207</ele>
        <time>2020-12-13T21:18:50Z</time>
      </trkpt>
      <trkpt lat="44.61094" lon="0.90083">
        <ele>202</ele>
        <time>2020-12-13T21:19:10Z</time>
      </trkpt>
      <trkpt lat="44.61079" lon="0.90029">
        <ele>200</ele>
        <time>2020-12-13T21:19:19Z</time>
      </trkpt>
      <trkpt lat="44.61079" lon="0.89909">
        <ele>203</ele>
        <time>2020-12-13T21:19:39Z</time>
      </trkpt>
      <trkpt lat="44.6106" lon="0.89821">
        <ele>205</ele>
        <time>2020-12-13T21:19:55Z</time>
      </trkpt>
      <trkpt lat="44.61056" lon="0.89756">
        <ele>204</ele>
        <time>2020-12-13T21:20:05Z</time>
      </trkpt>
      <trkpt lat="44.611" lon="0.89686">
        <ele>210</ele>
        <time>2020-12-13T21:20:21Z</time>
      </trkpt>
      <trkpt lat="44.61129" lon="0.8957">
        <ele>216</ele>
        <time>2020-12-13T21:20:41Z</time>
      </trkpt>
      <trkpt lat="44.61209" lon="0.89527">
        <ele>217</ele>
        <time>2020-12-13T21:21:01Z</time>
      </trkpt>
      <trkpt lat="44.61293" lon="0.89409">
        <ele>213</ele>
        <time>2020-12-13T21:21:29Z</time>
      </trkpt>
      <trkpt lat="44.61375" lon="0.89327">
        <ele>207</ele>
        <time>2020-12-13T21:21:53Z</time>
      </trkpt>
      <trkpt lat="44.61476" lon="0.89231">
        <ele>200</ele>
        <time>2020-12-13T21:22:21Z</time>
      </trkpt>
      <trkpt lat="44.61561" lon="0.89173">
        <ele>201</ele>
        <time>2020-12-13T21:22:43Z</time>
      </trkpt>
      <trkpt lat="44.61545" lon="0.89091">
        <ele>199</ele>
        <time>2020-12-13T21:22:57Z</time>
      </trkpt>
      <trkpt lat="44.6152" lon="0.89025">
        <ele>197</ele>
        <time>2020-12-13T21:23:10Z</time>
      </trkpt>
      <trkpt lat="44.61444" lon="0.8896">
        <ele>196</ele>
        <time>2020-12-13T21:23:31Z</time>
      </trkpt>
      <trkpt lat="44.61393" lon="0.88924">
        <ele>195</ele>
        <time>2020-12-13T21:23:44Z</time>
      </trkpt>
      <trkpt lat="44.61343" lon="0.88872">
        <ele>196</ele>
        <time>2020-12-13T21:23:58Z</time>
      </trkpt>
      <trkpt lat="44.61279" lon="0.88806">
        <ele>194</ele>
        <time>2020-12-13T21:24:17Z</time>
      </trkpt>
      <trkpt lat="44.61215" lon="0.8878">
        <ele>193</ele>
        <time>2020-12-13T21:24:33Z</time>
      </trkpt>
      <trkpt lat="44.61141" lon="0.88664">
        <ele>193</ele>
        <time>2020-12-13T21:24:58Z</time>
      </trkpt>
      <trkpt lat="44.61091" lon="0.88636">
        <ele>192</ele>
        <time>2020-12-13T21:25:11Z</time>
      </trkpt>
      <trkpt lat="44.61036" lon="0.88561">
        <ele>195</ele>
        <time>2020-12-13T21:25:29Z</time>
      </trkpt>
      <trkpt lat="44.6103" lon="0.88583">
        <ele>193</ele>
        <time>2020-12-13T21:25:33Z</time>
      </trkpt>
      <trkpt lat="44.61041" lon="0.88681">
        <ele>190</ele>
        <time>2020-12-13T21:25:49Z</time>
      </trkpt>
      <trkpt lat="44.61036" lon="0.88741">
        <ele>191</ele>
        <time>2020-12-13T21:25:59Z</time>
      </trkpt>
      <trkpt lat="44.6096" lon="0.88808">
        <ele>190</ele>
        <time>2020-12-13T21:26:20Z</time>
      </trkpt>
      <trkpt lat="44.60848" lon="0.88883">
        <ele>188</ele>
        <time>2020-12-13T21:26:49Z</time>
      </trkpt>
      <trkpt lat="44.6083" lon="0.88909">
        <ele>189</ele>
        <time>2020-12-13T21:26:55Z</time>
      </trkpt>
      <trkpt lat="44.60665" lon="0.88982">
        <ele>185</ele>
        <time>2020-12-13T21:27:36Z</time>
      </trkpt>
      <trkpt lat="44.60489" lon="0.89061">
        <ele>179</ele>
        <time>2020-12-13T21:28:19Z</time>
      </trkpt>
      <trkpt lat="44.60362" lon="0.89145">
        <ele>174</ele>
        <time>2020-12-13T21:28:52Z</time>
      </trkpt>
      <trkpt lat="44.60287" lon="0.89231">
        <ele>174</ele>
        <time>2020-12-13T21:29:14Z</time>
      </trkpt>
      <trkpt lat="44.60211" lon="0.89263">
        <ele>173</ele>
        <time>2020-12-13T21:29:33Z</time>
      </trkpt>
      <trkpt lat="44.60168" lon="0.89304">
        <ele>172</ele>
        <time>2020-12-13T21:29:45Z</time>
      </trkpt>
      <trkpt lat="44.60125" lon="0.89316">
        <ele>174</ele>
        <time>2020-12-13T21:29:55Z</time>
      </trkpt>
      <trkpt lat="44.60129" lon="0.89362">
        <ele>173</ele>
        <time>2020-12-13T21:30:03Z</time>
      </trkpt>
      <trkpt lat="44.60119" lon="0.894">
        <ele>172</ele>
        <time>2020-12-13T21:30:10Z</time>
      </trkpt>
      <trkpt lat="44.60105" lon="0.89435">
        <ele>172</ele>
        <time>2020-12-13T21:30:16Z</time>
      </trkpt>
      <trkpt lat="44.60087" lon="0.8947">
        <ele>173</ele>
        <time>2020-12-13T21:30:23Z</time>
      </trkpt>
      <trkpt lat="44.60075" lon="0.89495">
        <ele>173</ele>
        <time>2020-12-13T21:30:28Z</time>
        <extensions>
          <visugpx:TrkExtension xmlns:visugpx="https://www.visugpx.com/editgpx/">
            <visugpx:node>1</visugpx:node>
            </visugpx:TrkExtension>
        </extensions>
      </trkpt>
    </trkseg>
  </trk>
</gpx>